{"data":{"norad_id":52301,"epoch":"2026-05-25T04:23:59.320608Z","epoch_age_seconds":62629,"freshness":"FRESH","line1":"1 52301U 22041AS  26145.18332547  .00000654  00000+0  59203-4 0  9998","line2":"2 52301  53.2146 115.7263 0001261  69.9855 290.1273 15.08839052226051","mean_motion":15.08839052,"eccentricity":0.0001261,"inclination_deg":53.2146,"raan_deg":115.7263,"arg_perigee_deg":69.9855,"mean_anomaly_deg":290.1273,"bstar":5.9203e-5,"rev_number":22605,"period_min":95.437614640955,"perigee_km":538.87394153992,"apogee_km":540.61863170481,"semimajor_km":6917.8832866224,"source":"CELESTRAK","updated_at":"2026-05-25T13:38:17.108286Z"}}